Temperature
17 17 17 17 17 17 17 17 17 17 17 17 17 17 17 17 18 18 18 18 18 18 18 18 18 18 18 18 18 18 18 18 18 18 18 18 18 18 18 18 18 18 18
17 17 17 17 17 17 17 17 17 17 17 17 17 17 17 17 17 18 18 18 18 18 18 18 18 18 18 18 18 18 18 18 18 18 18 18 18 18 18 18 18 18 18
17 17 17 17 17 17 17 17 17 17 17 17 17 17 17 17 17 17 17 18 17 17 17 17 17 17 17 18 18 18 18 18 18 18 18 18 17 17 17 18 18 18 18
17 17 17 17 17 17 17 17 17 17 17 17 17 17 17 17 17 17 18 18 17 17 17 17 17 17 17 17 17 17 17 17 18 18 18 18 17 17 17 17 17 17 18
17 17 17 17 17 17 17 17 17 17 17 17 17 17 17 17 17 17 17 17 17 17 17 17 17 17 17 17 17 17 17 17 17 17 17 17 17 17 17 17 17 17 17
17 17 17 17 17 16 16 17 17 17 17 17 17 17 17 17 17 17 17 17 17 17 17 17 17 17 17 17 17 17 17 17 17 17 17 17 17 17 17 17 17 17 17
17 17 17 17 16 16 16 16 17 17 17 17 17 17 17 17 17 17 17 17 17 17 17 17 17 17 17 17 17 17 17 17 17 17 17 17 17 17 17 17 17 17 17
17 17 17 17 16 16 16 16 16 16 16 16 16 16 16 17 17 17 17 17 16 16 16 16 16 17 17 17 16 17 17 17 17 17 17 17 17 17 17 17 17 17 17
17 17 17 16 16 16 16 16 16 16 16 16 16 16 16 16 16 16 16 16 16 16 16 16 16 16 16 16 16 16 16 17 17 17 17 17 17 17 17 17 17 17 17
17 17 16 16 16 16 16 16 16 16 16 16 16 16 16 16 16 16 16 16 16 16 16 16 16 16 16 16 16 16 16 16 16 16 16 16 16 17 17 17 17 16 16
16 16 16 16 16 16 16 16 16 16 16 16 16 16 16 16 16 16 16 16 16 16 16 16 16 16 16 16 16 16 16 16 16 16 16 16 16 16 16 16 16 16 16
16 16 16 16 16 16 16 16 16 16 16 16 16 16 16 16 16 16 16 16 16 16 16 16 16 16 16 16 16 16 16 16 16 16 16 16 16 16 16 16 16 16 16
16 16 16 16 16 16 16 16 16 16 15 15 15 15 15 15 15 16 16 16 16 16 16 16 16 16 16 16 15 15 15 15 16 16 16 16 16 16 16 16 16 16 16
17 16 16 16 16 16 16 16 15 15 15 15 15 15 15 15 15 15 15 15 15 15 15 15 15 15 15 15 15 15 15 15 15 15 15 15 15 15 15 16 16 15 16
17 16 16 16 16 16 16 15 15 15 15 15 15 15 15 15 15 15 15 15 15 15 15 15 15 15 15 15 15 15 15 15 15 15 15 15 15 15 15 15 15 15 15
17 16 16 16 16 16 16 15 15 15 15 15 15 15 15 15 15 15 15 15 15 15 15 15 15 15 15 15 15 15 15 15 15 15 15 15 15 15 15 15 15 15 15
17 16 16 16 16 16 16 15 15 15 15 15 15 14 14 14 14 14 14 14 15 15 15 15 15 15 15 15 15 15 15 15 14 14 15 15 15 15 15 15 15 15 15
17 16 16 16 16 15 15 15 15 15 15 15 14 14 14 14 14 14 14 14 14 14 14 14 14 15 15 15 14 14 14 14 14 14 14 14 14 14 14 15 14 14 15
17 16 16 16 16 15 15 15 15 15 15 14 14 14 14 14 14 14 14 14 14 14 14 14 14 14 14 14 14 14 14 14 14 14 14 14 14 14 14 14 14 14 14
17 16 16 16 16 15 15 15 15 15 14 14 14 14 14 14 14 14 14 14 14 14 14 14 14 14 14 14 14 14 14 13 13 14 13 13 13 14 14 14 14 14 14
16 16 16 16 16 15 15 15 15 15 14 14 14 14 14 14 13 13 13 14 14 14 14 13 14 14 14 14 14 13 13 13 13 13 13 13 13 13 13 13 14 14 14
17 16 16 16 16 15 15 15 15 15 14 14 14 14 13 13 13 13 13 13 13 13 13 13 13 13 13 13 13 13 13 13 13 13 13 13 13 13 13 13 13 13 13
17 16 16 16 16 15 15 15 15 14 14 14 14 14 13 13 13 13 13 13 13 13 13 13 13 13 13 13 13 13 13 12 12 12 12 12 12 12 13 13 13 13 13
17 16 16 16 16 15 15 15 15 14 14 14 14 13 13 13 13 13 12 12 12 12 12 13 13 12 13 13 12 12 12 12 12 12 12 12 12 12 12 12 12 12 12
17 16 16 16 15 15 15 14 14 14 14 14 13 13 13 13 13 12 12 12 12 12 12 12 12 12 12 12 12 12 12 12 12 12 11 11 12 12 12 12 12 12 12
16 16 16 15 15 15 15 14 14 14 14 13 13 13 13 12 12 12 12 12 12 12 12 12 12 12 12 12 12 12 12 11 12 11 11 11 11 11 11 11 11 11 11
Wind_Speed
2 3 4 5 6 7 8 10 10 10 10 11 11 11 11 11 11 11 11 11 11 11 11 10 10 11 11 11 10 9 9 9 8 8 8 8 7 7 7 7 7 6 7
1 2 4 6 7 8 9 10 10 10 10 10 11 11 11 11 11 11 11 11 11 11 11 11 10 10 11 10 9 9 8 8 9 8 8 7 7 7 7 7 7 6 8
2 3 4 6 7 8 9 9 10 10 10 10 10 11 11 11 11 11 10 10 10 10 10 11 11 11 11 10 9 9 8 8 9 8 7 6 5 6 7 7 7 7 8
3 4 5 7 8 8 9 9 10 10 10 9 10 10 10 10 10 10 10 10 10 9 9 9 10 10 10 10 10 9 9 9 9 8 7 6 5 5 6 7 7 7 7
4 5 5 8 8 8 9 9 9 9 9 9 9 9 9 9 9 9 9 9 9 9 9 9 10 10 10 10 10 9 9 9 9 8 7 6 5 6 6 7 7 6 6
4 5 5 7 8 8 8 9 9 9 9 9 9 8 9 9 9 8 8 9 9 9 9 9 10 10 9 10 10 10 10 10 9 8 7 6 5 5 6 6 6 6 6
3 4 5 7 7 7 8 8 8 8 8 8 8 8 8 8 8 8 8 8 9 9 9 9 9 9 9 10 10 10 10 9 8 7 6 5 5 6 6 6 6 6 6
3 4 5 6 7 7 7 8 8 8 8 8 8 8 8 8 8 8 8 8 8 8 8 8 9 9 9 9 9 10 9 8 7 6 5 5 5 6 6 7 6 6 6
4 4 4 5 6 6 7 7 7 8 8 9 9 8 8 8 8 8 8 8 8 8 8 8 8 8 9 9 9 9 9 8 7 5 4 4 4 5 6 6 6 5 6
3 3 3 4 5 5 5 6 7 7 8 8 9 8 9 9 8 8 8 8 8 8 8 8 9 9 10 10 10 10 9 8 7 6 4 3 4 5 5 5 5 5 6
2 2 2 3 4 5 5 6 6 7 7 8 8 9 9 9 9 8 8 8 8 8 8 9 9 10 11 11 11 10 9 7 7 6 5 4 5 5 5 5 5 5 5
1 0 1 1 2 3 4 5 6 6 7 8 8 8 8 8 8 8 8 8 8 8 8 9 10 10 10 9 10 9 8 7 6 6 5 5 5 5 6 5 5 5 5
2 1 1 1 2 2 3 4 4 5 6 7 7 7 7 7 7 8 7 7 8 8 8 8 9 8 8 8 7 8 8 7 7 6 7 7 7 6 6 6 5 5 5
3 2 1 1 1 1 2 3 3 4 4 4 5 6 6 5 5 5 5 6 6 6 6 6 6 7 8 8 7 7 8 7 7 7 8 10 8 7 7 6 6 5 5
3 2 2 2 2 1 2 2 3 3 3 3 4 5 6 4 3 3 4 5 5 5 5 4 4 5 6 6 7 7 6 7 7 7 7 10 9 8 7 7 6 5 5
3 3 2 2 2 3 2 2 2 2 3 4 4 4 5 4 3 3 3 4 4 5 4 4 4 4 4 5 5 6 6 6 7 7 7 8 9 9 8 7 6 5 5
3 3 3 3 3 3 3 2 3 3 4 3 3 4 4 4 4 3 3 3 3 4 5 5 5 5 4 4 5 5 5 6 7 7 7 7 8 9 9 8 7 6 4
4 4 3 3 4 3 3 2 3 3 4 3 3 4 4 3 4 4 3 2 3 5 4 3 3 4 4 4 4 4 5 5 7 7 7 7 7 7 8 9 7 6 5
4 5 4 4 4 3 3 3 4 4 4 4 4 4 4 4 4 4 3 2 3 3 3 3 3 3 3 4 4 4 4 4 5 6 6 7 8 8 8 9 9 7 5
4 4 4 4 4 4 3 3 3 4 3 4 4 4 4 4 4 4 3 3 3 3 3 2 3 3 3 3 4 5 4 4 4 5 5 6 7 8 8 8 8 8 8
4 4 4 5 4 4 2 2 2 1 1 2 3 4 4 4 4 4 3 2 2 2 2 2 3 3 2 2 3 3 4 4 4 4 5 5 6 7 8 8 7 7 7
5 5 5 4 4 4 3 2 2 2 1 1 2 4 4 4 3 3 3 2 2 2 3 2 2 2 1 2 2 2 2 3 4 4 4 4 5 6 7 7 7 7 7
5 6 6 5 4 4 3 3 3 3 3 2 2 2 3 3 3 3 3 3 2 2 2 1 2 2 1 1 2 2 2 1 1 3 4 4 4 4 5 6 7 7 6
6 5 5 5 4 4 4 4 5 3 2 1 1 0 2 3 3 3 3 3 2 1 1 1 2 1 2 1 1 2 1 2 2 1 3 3 4 4 4 5 5 6 6
6 5 5 5 4 4 4 5 4 3 2 1 1 1 2 2 3 3 3 3 2 1 1 1 2 2 1 2 1 1 2 2 2 2 1 3 3 3 3 4 4 4 6
5 5 5 5 4 4 4 4 5 5 4 3 2 1 1 1 2 2 2 2 1 1 1 1 1 1 1 1 1 1 2 2 1 2 1 1 2 3 3 3 3 4 4
Wind_Direction
314 318 9 46 60 63 68 73 75 76 79 79 79 80 78 79 81 82 82 82 83 80 78 80 87 93 96 96 96 95 93 92 99 102 103 108 111 112 111 110 108 108 115
248 356 41 56 63 67 71 76 77 77 78 79 80 79 77 77 78 79 80 81 81 79 76 74 80 87 88 90 91 93 92 88 87 93 92 93 102 106 108 112 111 106 108
73 54 58 61 69 75 75 80 80 79 79 78 79 78 76 75 76 77 77 79 79 78 76 74 78 83 83 83 83 85 88 84 81 79 75 69 83 101 108 113 110 106 107
85 68 69 71 71 74 77 80 81 81 81 81 79 77 74 72 74 75 74 75 77 77 78 77 78 79 78 78 78 78 80 79 77 73 63 59 71 96 109 112 111 108 108
75 69 68 74 72 73 75 76 78 80 82 82 77 76 74 71 70 72 72 72 76 78 78 77 78 76 74 74 73 72 76 78 73 69 63 60 66 90 103 110 111 110 108
71 68 70 75 72 73 73 75 75 76 78 78 76 75 73 71 69 69 70 70 73 78 77 75 75 75 75 73 71 73 77 76 70 66 62 64 71 90 100 108 113 112 108
84 64 70 74 73 73 73 74 75 73 72 71 70 70 69 70 67 66 66 69 71 76 76 74 72 74 74 73 72 73 73 73 68 65 60 63 78 94 100 105 107 107 107
98 69 63 70 72 75 74 72 73 72 68 67 66 64 62 63 63 62 63 69 71 72 73 72 71 72 74 74 71 70 69 69 65 63 61 60 80 89 95 103 107 106 107
82 69 48 46 55 64 67 70 73 71 67 65 63 59 57 59 62 61 61 67 69 71 70 69 70 74 74 73 72 72 68 66 62 56 58 55 82 91 93 97 105 109 106
72 57 43 38 40 41 48 64 68 68 64 60 57 53 51 51 51 55 57 62 63 65 67 68 70 73 71 71 72 73 68 60 56 49 44 56 79 86 95 103 107 107 106
74 44 42 38 35 33 42 54 60 59 56 55 51 50 50 45 42 44 52 55 58 59 61 65 71 69 66 65 65 63 62 60 56 44 41 58 76 81 87 94 106 110 105
153 37 63 51 41 38 47 51 51 53 54 56 54 51 51 47 42 40 43 49 51 53 55 60 64 63 61 59 56 55 55 54 50 37 39 56 65 73 75 81 94 110 108
193 192 154 119 70 60 53 57 53 55 54 51 52 51 55 51 44 41 40 38 39 46 51 55 56 58 60 59 57 55 52 51 44 38 41 55 59 67 68 72 79 94 100
162 190 187 143 99 80 76 68 62 61 59 51 48 55 64 57 45 40 41 36 40 46 52 55 61 60 60 57 59 59 55 52 44 39 40 49 52 57 63 66 78 88 96
167 175 177 148 122 84 77 72 68 64 69 66 63 63 74 71 50 46 41 42 42 50 59 57 60 63 60 55 55 57 52 49 44 41 35 43 45 47 53 58 72 85 92
181 174 152 130 119 96 82 74 77 76 75 71 65 63 75 85 74 58 48 46 43 47 63 74 75 71 62 59 51 51 47 46 45 41 35 36 40 42 44 49 57 73 88
181 161 151 139 107 101 95 84 86 83 78 72 66 67 77 84 82 74 60 48 40 52 67 78 76 74 65 58 47 43 45 42 45 42 37 34 33 35 38 41 48 55 65
159 149 155 142 117 112 106 92 85 81 81 76 77 76 84 94 97 87 71 51 52 63 68 74 72 72 63 59 52 39 42 42 41 42 40 35 31 28 30 31 37 45 47
166 154 142 127 125 125 109 90 82 79 73 72 74 72 77 85 94 93 80 68 70 70 64 76 71 85 84 68 60 48 40 38 35 39 38 35 33 31 27 23 26 32 38
163 152 141 133 125 120 101 82 70 63 54 59 63 63 75 83 91 89 79 68 73 73 60 67 81 71 89 87 72 54 38 36 37 36 33 35 35 32 29 26 23 24 32
154 150 151 144 141 130 112 108 98 78 44 36 44 48 62 80 92 93 83 73 69 76 79 86 92 85 69 67 73 47 29 33 37 31 32 34 31 27 30 28 25 25 23
172 167 160 159 157 157 145 133 122 116 93 69 41 44 46 66 87 98 95 92 80 78 69 77 87 87 53 46 91 88 27 5 16 22 21 29 23 24 27 25 26 26 25
180 177 175 174 167 159 134 110 90 67 50 38 27 14 16 47 73 91 98 95 89 100 121 118 99 103 117 35 54 117 132 217 332 356 12 18 14 18 15 20 25 22 24
191 176 168 169 165 154 140 139 140 143 151 197 200 336 15 46 63 80 95 96 104 113 130 145 107 108 128 134 40 48 105 150 149 337 345 358 5 11 6 14 16 20 26
180 167 166 160 158 151 149 152 146 138 146 124 91 71 41 31 47 61 83 88 102 122 130 102 96 86 107 140 148 119 78 66 102 147 277 327 348 350 358 1 7 15 22
165 159 158 157 162 158 153 151 155 152 145 130 122 116 51 25 21 35 59 68 90 113 124 121 108 105 92 113 124 141 158 155 171 153 188 278 316 321 333 353 2 0 15
Height
1516 1515 1515 1514 1514 1514 1513 1513 1513 1513 1513 1513 1513 1513 1513 1513 1513 1513 1513 1513 1514 1514 1514 1514 1514 1515 1516 1516 1517 1518 1519 1519 1520 1520 1521 1522 1523 1524 1525 1526 1527 1527 1528
1517 1516 1516 1515 1515 1515 1515 1515 1515 1515 1515 1515 1515 1515 1515 1515 1515 1515 1515 1515 1515 1515 1515 1515 1514 1515 1516 1517 1518 1519 1519 1520 1520 1521 1522 1522 1523 1524 1525 1526 1527 1528 1529
1518 1517 1517 1517 1516 1516 1516 1516 1516 1516 1516 1516 1516 1516 1516 1516 1516 1516 1516 1516 1516 1517 1517 1517 1515 1516 1518 1518 1519 1520 1520 1521 1521 1522 1522 1523 1523 1524 1525 1526 1528 1528 1529
1519 1518 1518 1518 1517 1517 1517 1517 1517 1518 1518 1518 1518 1518 1518 1518 1518 1518 1518 1518 1518 1518 1518 1518 1518 1518 1519 1519 1520 1520 1521 1521 1522 1522 1523 1523 1524 1525 1526 1527 1528 1529 1529
1520 1520 1519 1519 1519 1519 1519 1519 1519 1519 1519 1519 1519 1519 1519 1519 1519 1519 1519 1519 1519 1519 1519 1519 1519 1520 1520 1520 1521 1520 1521 1522 1522 1523 1523 1524 1525 1525 1526 1527 1528 1529 1530
1521 1521 1521 1520 1520 1520 1520 1520 1520 1520 1521 1521 1521 1521 1521 1521 1521 1521 1520 1520 1521 1521 1521 1521 1521 1521 1521 1521 1521 1521 1522 1523 1523 1524 1524 1525 1525 1526 1527 1528 1529 1529 1530
1522 1522 1522 1522 1522 1522 1522 1521 1521 1522 1522 1522 1522 1522 1522 1522 1522 1522 1522 1522 1522 1522 1522 1522 1522 1522 1522 1522 1523 1523 1523 1524 1524 1525 1525 1526 1526 1527 1528 1528 1529 1530 1531
1523 1523 1523 1523 1523 1523 1523 1523 1523 1523 1523 1523 1523 1523 1523 1523 1523 1523 1523 1523 1523 1523 1523 1524 1524 1524 1524 1524 1524 1524 1524 1525 1525 1526 1526 1527 1527 1528 1528 1529 1529 1530 1531
1525 1525 1525 1524 1524 1524 1524 1524 1524 1524 1524 1524 1524 1524 1524 1524 1524 1524 1524 1524 1524 1524 1525 1525 1525 1525 1525 1525 1525 1525 1525 1526 1526 1527 1527 1527 1528 1528 1528 1529 1530 1531 1531
1526 1526 1526 1526 1526 1526 1526 1526 1526 1526 1526 1526 1526 1525 1525 1526 1526 1526 1525 1525 1526 1526 1526 1526 1526 1526 1526 1526 1526 1526 1527 1527 1527 1527 1527 1528 1528 1529 1529 1530 1530 1531 1531
1527 1527 1527 1527 1527 1527 1527 1527 1527 1527 1527 1527 1527 1527 1527 1527 1527 1527 1527 1527 1527 1527 1527 1527 1527 1527 1527 1527 1528 1528 1528 1528 1528 1528 1528 1529 1529 1529 1530 1530 1530 1531 1531
1527 1527 1528 1528 1528 1528 1528 1528 1528 1528 1528 1528 1528 1528 1528 1528 1528 1528 1528 1528 1528 1528 1528 1528 1528 1528 1528 1528 1529 1529 1529 1529 1529 1529 1529 1530 1530 1530 1530 1531 1531 1531 1531
1528 1528 1529 1529 1529 1529 1530 1530 1530 1530 1529 1529 1529 1529 1529 1529 1529 1529 1528 1528 1528 1528 1529 1529 1529 1529 1530 1530 1530 1530 1530 1530 1530 1530 1530 1530 1530 1531 1531 1531 1531 1531 1531
1528 1529 1530 1530 1530 1530 1530 1530 1531 1530 1530 1530 1530 1530 1530 1530 1530 1530 1529 1529 1529 1529 1529 1530 1530 1530 1531 1531 1531 1531 1531 1531 1531 1531 1531 1531 1531 1531 1531 1531 1531 1532 1532
1529 1529 1530 1530 1531 1531 1531 1531 1531 1531 1531 1531 1531 1531 1531 1531 1531 1530 1530 1530 1530 1530 1530 1530 1531 1531 1531 1532 1532 1532 1532 1532 1532 1532 1532 1532 1532 1532 1532 1532 1532 1532 1532
1529 1529 1530 1531 1531 1531 1531 1531 1532 1532 1532 1532 1532 1532 1532 1531 1531 1531 1531 1531 1531 1530 1530 1531 1531 1531 1532 1532 1532 1532 1532 1532 1532 1532 1532 1532 1532 1532 1532 1532 1532 1532 1532
1529 1530 1530 1531 1531 1531 1532 1532 1532 1532 1532 1532 1532 1532 1532 1532 1531 1531 1531 1531 1531 1531 1531 1531 1531 1532 1532 1532 1532 1532 1532 1533 1533 1532 1532 1532 1532 1532 1532 1532 1532 1532 1532
1529 1529 1530 1531 1531 1532 1532 1532 1532 1532 1532 1532 1532 1532 1532 1532 1532 1531 1531 1531 1531 1531 1531 1531 1531 1532 1532 1532 1532 1532 1533 1533 1533 1533 1533 1533 1532 1532 1532 1532 1532 1532 1532
1528 1529 1530 1531 1531 1531 1532 1532 1532 1532 1532 1532 1532 1532 1532 1532 1532 1531 1531 1531 1531 1531 1531 1531 1531 1532 1532 1532 1532 1532 1533 1533 1533 1533 1533 1533 1533 1532 1532 1532 1532 1532 1532
1528 1529 1530 1530 1531 1531 1531 1531 1532 1532 1532 1532 1532 1532 1532 1531 1531 1531 1531 1531 1531 1531 1531 1531 1531 1532 1532 1532 1532 1532 1533 1533 1533 1533 1533 1533 1533 1532 1532 1532 1532 1532 1532
1526 1527 1529 1530 1530 1530 1531 1531 1531 1531 1531 1531 1531 1531 1531 1531 1531 1531 1531 1531 1531 1530 1531 1531 1531 1531 1531 1532 1532 1532 1533 1533 1533 1533 1533 1533 1533 1532 1532 1532 1531 1531 1531
1524 1526 1527 1528 1529 1530 1530 1530 1531 1531 1531 1531 1531 1531 1531 1531 1530 1530 1530 1530 1530 1530 1530 1530 1530 1531 1531 1531 1532 1532 1532 1534 1533 1533 1533 1533 1532 1532 1532 1531 1531 1531 1531
1522 1524 1526 1527 1528 1529 1529 1530 1530 1530 1530 1530 1530 1530 1530 1530 1529 1529 1529 1529 1529 1529 1529 1529 1530 1530 1530 1531 1531 1532 1532 1532 1532 1533 1532 1532 1532 1532 1531 1531 1531 1531 1531
1520 1522 1524 1526 1527 1528 1528 1528 1528 1528 1528 1529 1529 1529 1529 1529 1528 1528 1528 1528 1528 1528 1528 1529 1529 1529 1530 1530 1530 1531 1532 1531 1532 1531 1532 1532 1531 1531 1530 1530 1530 1530 1530
1519 1521 1522 1524 1525 1526 1527 1527 1527 1527 1527 1528 1528 1528 1528 1528 1527 1527 1527 1527 1527 1527 1527 1528 1528 1528 1529 1529 1529 1530 1530 1530 1530 1530 1530 1530 1530 1530 1529 1529 1529 1529 1529
1516 1518 1520 1522 1523 1524 1525 1525 1526 1526 1526 1526 1526 1526 1527 1526 1526 1526 1526 1526 1526 1526 1527 1527 1527 1527 1527 1528 1528 1528 1529 1529 1529 1529 1528 1528 1528 1528 1528 1528 1528 1528 1527